Terug naar catalogus

COSMOS 1877

ActiefMilitairPO
NORAD 18336·PAYLOAD·🇷🇺 Russia

Gelanceerd Sep 7, 1987 vanaf Plesetsk Cosmodrome

Loading…

Volgende Passages (komende 24 uur)

TLE

VersSource: Space-Track

Epoch: Sep 14, 2026, 09:30 UTC

1 18336U 87074C   26257.39602369 -.00000005  00000-0 -85888-4 0  9995
2 18336  82.5596 240.4976 0001966 141.7494  26.7865 12.63668343799508

Volg COSMOS 1877 in realtime met AllMySat

Download on the App Store